Simultaneous Nadir Overpasses (SNOs) Predictions

Prediction of SNOs between AQUA and NOAA-19 Satellite Orbit:

Table of predicted SNOs for the next 14.0 days since TLE Epoch: 5/15/2015
Index Date (AQUA) Time (AQUA) Lat,Lon (AQUA) SZA (AQUA ) Date (NOAA-19) Time (NOAA-19) Lat,Lon (NOAA-19) SZA (NOAA-19 ) Distance(km) Time Diff (sec)
1 05/17/2015 04:20:18 -79.94, -94.83 118.02 05/17/2015 04:19:24 -79.95, -94.96 117.98 2.67 54
2 05/17/2015 05:09:40 79.77, 74.10 61.72 05/17/2015 05:10:20 79.77, 74.17 61.69 1.42 40
3 05/19/2015 09:53:55 79.88, 2.25 61.39 05/19/2015 09:53:47 79.88, 2.15 61.42 2.13 8
4 05/21/2015 14:38:09 79.97, -69.54 61.09 05/21/2015 14:37:13 79.97, -69.66 61.13 2.36 56
5 05/21/2015 15:27:31 -79.81, 99.33 119.17 05/21/2015 15:28:06 -79.80, 99.47 119.20 2.90 35
6 05/23/20
